Location: Consuma
(43.7833°N, 11.5833°E)
Time: 15:34:18
(UTC+00:00)

SKYMED 3 - Pass Details

Date: 17 February 2020
Orbit: 621 x 623 km, 97.9° (Epoch: 07 April)

Event Time Altitude Azimuth Distance (km) Brightness Sun altitude
Rises 04:21:35 0° 165° (SSE) 2,890 8.2 -20.3°
Reaches altitude 10° 04:23:45 10° 165° (SSE) 1,989 7.3 -19.9°
Maximum altitude 04:28:05 88° 80° (E) 631 4.5 -19.1°
Drops below altitude 10° 04:32:28 10° 348° (NNW) 2,005 7.1 -18.3°
Sets 04:34:40 0° 348° (NNW) 2,917 7.9 -17.9°
